Rickenbacker, OH

1:00 PM EDT on October 22, 2019 (GMT -0400)
Rickenbacker International

Weather History for KLCK - September, 2019

Change the Weather History Date:

Thursday, September 19, 2019

  Actual Average Record
Temperature  
Mean Temperature 68 °F -  
Max Temperature 83 °F 74 °F 89 °F (2007)
Min Temperature 52 °F 52 °F 40 °F (2012)
Cooling Degree Days 2    
Growing Degree Days 18 (Base 50)    
Moisture  
Dew Point 54 °F    
Average Humidity 62    
Maximum Humidity 87    
Minimum Humidity 45    
Precipitation  
Precipitation 0.00 in - - ()
Sea Level Pressure  
Sea Level Pressure 30.14 in    
Wind  
Wind Speed 7 mph (ESE)    
Max Wind Speed 13 mph    
Max Gust Speed 22 mph    
Visibility 10 miles    
Events      
Averages and records for this station are not official NWS values.
T = Trace of Precipitation, MM = Missing Value Source: NWS Daily Summary

Daily Weather History Graph

Daily Weather History Graph

Search for Another Location

Airport or City:

Astronomy

Sep. 19, 2019 Rise Set
Actual Time 7:16 AM EDT 7:34 PM EDT
Civil Twilight 6:49 AM EDT 8:01 PM EDT
Nautical Twilight 6:17 AM EDT 8:32 PM EDT
Astronomical Twilight 5:45 AM EDT 9:04 PM EDT
Moon 10:43 PM EDT (9/19) 12:18 PM EDT (9/19)
Length of Visible Light 13h 11m
Length of Day
12h 17m
Waning Gibbous, 74% of the Moon is Illuminated
Sep 19
Waning Gibbous
Sep 21
Last Quarter
Sep 28
New
Oct 5
First Quarter
Oct 13
Full

Hourly Weather History & Observations

Time (EDT) Temp. Heat Index Dew Point Humidity Pressure Visibility Wind Dir Wind Speed Gust Speed Precip Events Conditions
12:15 AM 62.8 °F - 48.4 °F 59% 30.15 in 10.0 mi ENE 8.1 mph - N/A   Clear
12:35 AM 61.9 °F - 48.2 °F 61% 30.15 in 10.0 mi ENE 6.9 mph - N/A   Clear
12:55 AM 60.4 °F - 48.2 °F 64% 30.14 in 10.0 mi ENE 6.9 mph - N/A   Clear
1:15 AM 59.4 °F - 47.8 °F 66% 30.14 in 10.0 mi ENE 8.1 mph - N/A   Clear
1:35 AM 58.6 °F - 47.5 °F 66% 30.14 in 10.0 mi ENE 8.1 mph - N/A   Clear
1:55 AM 58.8 °F - 47.3 °F 66% 30.14 in 10.0 mi ENE 9.2 mph - N/A   Clear
2:15 AM 59.2 °F - 47.1 °F 64% 30.14 in 10.0 mi East 6.9 mph - N/A   Clear
2:35 AM 58.6 °F - 46.9 °F 65% 30.14 in 10.0 mi ENE 6.9 mph - N/A   Clear
2:55 AM 57.7 °F - 46.9 °F 67% 30.14 in 10.0 mi ENE 5.8 mph - N/A   Clear
3:15 AM 56.7 °F - 46.8 °F 69% 30.13 in 10.0 mi ENE 5.8 mph - N/A   Clear
3:35 AM 56.3 °F - 46.8 °F 70% 30.13 in 10.0 mi ENE 3.5 mph - N/A   Clear
3:55 AM 57.2 °F - 46.8 °F 68% 30.14 in 10.0 mi NE 4.6 mph - N/A   Clear
4:15 AM 55.8 °F - 46.6 °F 71% 30.14 in 10.0 mi ENE 5.8 mph - N/A   Clear
4:35 AM 54.9 °F - 46.8 °F 74% 30.14 in 10.0 mi ENE 5.8 mph - N/A   Clear
4:55 AM 55.6 °F - 47.3 °F 74% 30.13 in 10.0 mi ENE 6.9 mph - N/A   Clear
5:15 AM 54.5 °F - 47.3 °F 77% 30.13 in 10.0 mi ENE 3.5 mph - N/A   Clear
5:35 AM 54.0 °F - 47.3 °F 78% 30.13 in 10.0 mi NE 5.8 mph - N/A   Clear
5:55 AM 53.6 °F - 47.5 °F 80% 30.13 in 10.0 mi NE 5.8 mph - N/A   Clear
6:15 AM 52.9 °F - 47.3 °F 81% 30.13 in 10.0 mi ENE 3.5 mph - N/A   Clear
6:35 AM 52.7 °F - 47.3 °F 82% 30.13 in 10.0 mi NE 4.6 mph - N/A   Clear
6:55 AM 52.9 °F - 47.7 °F 82% 30.14 in 10.0 mi NE 5.8 mph - N/A   Clear
7:15 AM 52.3 °F - 47.8 °F 85% 30.15 in 10.0 mi NE 4.6 mph - N/A   Clear
7:35 AM 52.0 °F - 48.2 °F 87% 30.16 in 10.0 mi ENE 5.8 mph - N/A   Clear
7:55 AM 53.1 °F - 49.1 °F 86% 30.16 in 10.0 mi ENE 5.8 mph - N/A   Clear
8:15 AM 55.2 °F - 50.2 °F 83% 30.16 in 10.0 mi ENE 5.8 mph - N/A   Clear
8:35 AM 57.4 °F - 51.4 °F 81% 30.16 in 10.0 mi ENE 3.5 mph - N/A   Clear
8:55 AM 59.7 °F - 52.3 °F 77% 30.17 in 10.0 mi NE 4.6 mph - N/A   Clear
9:15 AM 61.9 °F - 53.2 °F 73% 30.17 in 10.0 mi NE 3.5 mph - N/A   Clear
9:35 AM 65.5 °F - 54.5 °F 68% 30.18 in 10.0 mi SE 8.1 mph - N/A   Clear
9:55 AM 68.7 °F - 54.7 °F 61% 30.18 in 10.0 mi SE 9.2 mph - N/A   Clear
10:15 AM 69.8 °F - 54.7 °F 59% 30.18 in 10.0 mi ESE 9.2 mph - N/A   Clear
10:35 AM 70.7 °F - 55.4 °F 58% 30.18 in 10.0 mi SE 5.8 mph - N/A   Clear
10:55 AM 72.1 °F - 55.6 °F 56% 30.17 in 10.0 mi SSE 12.7 mph - N/A   Clear
11:15 AM 73.9 °F - 55.6 °F 53% 30.17 in 10.0 mi South 9.2 mph - N/A   Clear
11:35 AM 74.5 °F - 55.8 °F 52% 30.17 in 10.0 mi SE 6.9 mph - N/A   Clear
11:55 AM 74.8 °F - 56.3 °F 52% 30.17 in 10.0 mi SE 8.1 mph - N/A   Clear
12:15 PM 76.3 °F - 57.0 °F 51% 30.17 in 10.0 mi South 4.6 mph - N/A   Clear
12:35 PM 77.0 °F - 57.6 °F 51% 30.16 in 10.0 mi ESE 5.8 mph - N/A   Clear
12:55 PM 78.3 °F - 57.9 °F 49% 30.15 in 10.0 mi South 4.6 mph - N/A   Clear
1:15 PM 79.0 °F - 58.5 °F 49% 30.15 in 10.0 mi South 5.8 mph 9.2 mph N/A   Clear
1:35 PM 79.9 °F - 58.8 °F 48% 30.15 in 10.0 mi South 4.6 mph - N/A   Clear
1:55 PM 80.6 °F 81.1 °F 59.2 °F 48% 30.15 in 10.0 mi ESE 5.8 mph - N/A   Clear
2:15 PM 80.8 °F 81.3 °F 59.4 °F 48% 30.14 in 10.0 mi ESE 9.2 mph - N/A   Clear
2:35 PM 81.7 °F 82.0 °F 59.5 °F 47% 30.14 in 10.0 mi SE 5.8 mph - N/A   Clear
2:55 PM 82.9 °F 83.2 °F 59.9 °F 46% 30.13 in 10.0 mi SE 10.4 mph - N/A   Clear
3:15 PM 82.8 °F 83.0 °F 59.9 °F 46% 30.13 in 10.0 mi SE 9.2 mph - N/A   Clear
3:35 PM 82.8 °F 82.8 °F 59.7 °F 45% 30.12 in 10.0 mi South 6.9 mph - N/A   Clear
3:55 PM 82.8 °F 82.8 °F 59.7 °F 45% 30.11 in 10.0 mi SE 9.2 mph - N/A   Clear
4:15 PM 83.1 °F 83.2 °F 59.9 °F 45% 30.11 in 10.0 mi SSE 10.4 mph - N/A   Clear
4:35 PM 82.9 °F 83.2 °F 60.1 °F 46% 30.10 in 10.0 mi SSE 9.2 mph - N/A   Clear
4:55 PM 82.8 °F 83.0 °F 59.9 °F 46% 30.10 in 10.0 mi SSE 8.1 mph 21.9 mph N/A   Clear
5:15 PM 82.9 °F 83.2 °F 59.9 °F 46% 30.10 in 10.0 mi SSE 8.1 mph - N/A   Clear
5:35 PM 82.2 °F 82.6 °F 60.1 °F 47% 30.10 in 10.0 mi ESE 9.2 mph - N/A   Clear
5:55 PM 82.0 °F 82.4 °F 60.3 °F 47% 30.10 in 10.0 mi ESE 4.6 mph - N/A   Clear
6:15 PM 81.9 °F 82.3 °F 60.4 °F 48% 30.10 in 10.0 mi ESE 8.1 mph - N/A   Scattered Clouds
6:35 PM 80.8 °F 81.4 °F 60.3 °F 49% 30.10 in 10.0 mi ESE 6.9 mph - N/A   Scattered Clouds
7:15 PM 78.4 °F - 60.1 °F 53% 30.10 in 10.0 mi SE 5.8 mph - N/A   Clear
7:35 PM 76.6 °F - 60.1 °F 56% 30.10 in 10.0 mi SE 4.6 mph - N/A   Scattered Clouds
7:55 PM 75.0 °F - 60.1 °F 60% 30.11 in 10.0 mi ESE 4.6 mph - N/A   Scattered Clouds
8:15 PM 74.7 °F - 59.9 °F 60% 30.11 in 10.0 mi ESE 5.8 mph - N/A   Clear
8:35 PM 73.0 °F - 59.9 °F 63% 30.12 in 10.0 mi ESE 4.6 mph - N/A   Clear
8:55 PM 72.5 °F - 59.7 °F 64% 30.12 in 10.0 mi ESE 5.8 mph - N/A   Clear
9:15 PM 71.6 °F - 59.0 °F 64% 30.12 in 10.0 mi ESE 5.8 mph - N/A   Clear
9:55 PM 69.6 °F - 58.3 °F 67% 30.13 in 10.0 mi East 4.6 mph - N/A   Clear
10:15 PM 68.4 °F - 57.9 °F 69% 30.14 in 10.0 mi East 4.6 mph - N/A   Clear
10:35 PM 68.2 °F - 57.0 °F 67% 30.14 in 10.0 mi East 5.8 mph - N/A   Clear
10:55 PM 67.1 °F - 56.5 °F 69% 30.14 in 10.0 mi East 4.6 mph - N/A   Clear
11:15 PM 66.9 °F - 55.9 °F 68% 30.14 in 10.0 mi ESE 4.6 mph - N/A   Clear
11:35 PM 67.1 °F - 55.0 °F 65% 30.14 in 10.0 mi ESE 4.6 mph - N/A   Clear
11:55 PM 67.1 °F - 54.5 °F 64% 30.14 in 10.0 mi ESE 5.8 mph - N/A   Clear